www.pogodaiklimat.ru

Погода и климат >> Архив погоды >> Греция >> Самос


ПОГОДА на Самосе

  • Прогноз погоды на Самосе
  • Монитор погоды на Самосе

АРХИВ ПОГОДЫ на Самосе

Время (UTC), дата Ветер
(напр.,м/с)
 
Видим.   Явления Облачность Т
(С)
Тd
(С)
f
(%)
Тe
(С)
Тes
(С)
Комфортность P
(гПа)
Po
(гПа)
Тmin
(С)
Tmax
(С)
R
(мм)
R24
(мм)
S
(см)
18 18.06 С 5
{9}
10 км 8/4 750 м
[Sc Cs]
+27.0 +17.9 57 +31 +31 душно 1009.4 1008.0 +31.8
03 19.06 С 5
{6}
10 км 3/3 600 м
[Cu hum Ac trans Ci fib]
+25.2 +17.2 61 +29 +29 душно 1009.1 1007.8
06 19.06 С 6
{9}
10 км 3/3 600 м
[Cu hum Ac trans Ci fib]
+27.0 +17.5 56 +31 +33 душно 1009.6 1008.3 +25.0 260
09 19.06 С 4
{9}
10 км 3/3 600 м
[Cu hum Ac trans]
+28.2 +17.1 51 +32 +41 душно 1009.6 1008.3
12 19.06 С 6
{10}
10 км 5/4 600 м
[Cu med, cong Ac trans]
+30.0 +15.1 40 +32 +36 жарко 1009.6 1008.3
15 19.06 С 4
{8}
10 км 5/4 600 м
[Cu med, cong Ac trans]
+31.0 +16.9 43 +35 +36 очень
душно
1008.5 1007.1
18 19.06 СЗ 4
{9}
10 км 8/4 600 м
[Cu med, cong Cs]
+25.0 +15.1 54 +28 +28 жарко 1009.4 1008.0 +31.0
03 20.06 С 5
{8}
10 км 3/3 600 м
[Cu med, cong Ci fib]
+25.4 +16.7 59 +29 +29 душно 1009.3 1007.9
06 20.06 С 6
{8}
10 км 4/3 600 м
[Cu med, cong Ci fib]
+27.2 +17.8 56 +31 +33 душно 1009.4 1008.0 +24.6 260
09 20.06 СЗ 6
{10}
10 км 3/0
[Ci fib]
+29.0 +16.2 46 +32 +40 душно 1009.6 1008.3
12 20.06 СЗ 3
{10}
10 км 3/1 600 м
[Cu hum Ci fib]
+31.2 +16.7 42 +35 +47 очень
душно
1008.6 1007.3
15 20.06 С 4
{9}
10 км 1/1 600 м
[Cu hum]
+30.6 +15.9 41 +33 +36 душно 1007.6 1006.3
18 20.06 С 5
{9}
10 км 3/3 600 м
[Cu hum]
+28.4 +15.0 44 +31 +31 душно 1008.0 1006.7 +31.4
03 21.06 С 4
{10}
10 км 1/1 600 м
[Cu hum]
+25.6 +14.7 51 +28 +28 жарко 1009.1 1007.8
06 21.06 С 5
{8}
10 км 1/1 600 м
[Cu hum]
+27.2 +15.1 48 +30 +34 душно 1010.3 1009.0 +25.6 275
09 21.06 С 5
{12}
10 км 1/0 2000 м
[Ac trans]
+30.4 +15.2 40 +33 +42 душно 1010.2 1008.9
12 21.06 С 7
{10}
10 км 1/1 600 м
[Cu hum]
+33.0 +17.9 41 +37 +42 очень
душно
1010.2 1009.0
15 21.06 СЗ 6
{9}
10 км 1/1 600 м
[Cu hum]
+32.0 +16.2 39 +35 +37 очень
душно
1009.3 1007.9
18 21.06 СЗ 3
{9}
10 км ясно +28.4 +12.9 38 +30 +30 жарко 1009.3 1007.9 +33.2
03 22.06 С 3
{5}
10 км ясно +25.8 +14.1 48 +28 +28 жарко 1010.3 1009.0
06 22.06 СВ 5
{8}
10 км 3/3 600 м
[Cu hum]
+28.0 +14.9 45 +31 +34 душно 1011.4 1010.0 +25.8 260
09 22.06 С 5
{9}
10 км ясно +30.2 +15.0 40 +33 +44 душно 1011.4 1010.0
12 22.06 С 5
{11}
10 км ясно +32.8 +15.6 36 +35 +45 душно 1009.4 1008.0
15 22.06 С 5
{11}
10 км ясно +33.2 +15.8 35 +36 +38 очень
душно
1008.3 1007.1
18 22.06 С 5
{11}
10 км 1/1 600 м
[Cu hum]
+31.0 +16.1 41 +34 +34 душно 1009.4 1008.0 +33.4
06 23.06 В 3
{7}
10 км ясно +28.0 +14.9 45 +31 +37 душно 1012.3 1011.0 +26.4 270
09 23.06 С 4
{7}
10 км ясно +30.2 +15.0 40 +33 +45 душно 1012.0 1010.7
12 23.06 С 5
{9}
10 км ясно +35.0 +14.0 28 +36 +45 очень
жарко
1011.9 1010.7
15 23.06 СЗ 6
{9}
10 км ясно +34.2 +15.5 33 +36 +38 душно 1011.5 1010.2
18 23.06 С 5
{10}
10 км ясно +31.0 +16.9 43 +35 +35 очень
душно
1011.6 1010.3 +35.0
03 24.06 С 2
{4}
10 км ясно +25.4 +18.5 66 +30 +30 душно 1012.0 1010.7
06 24.06 Ю 3
{4}
10 км ясно +28.6 +17.3 50 +33 +39 очень
душно
1011.8 1010.5 +25.0 260
09 24.06 Ю 3
{5}
10 км ясно +31.6 +22.3 58 +41 +58 опасность
перегрева
1011.4 1010.0
12 24.06 ЮВ 2
{5}
10 км ясно +31.8 +22.2 57 +41 +60 опасность
перегрева
1011.1 1009.8
15 24.06 Ю 3
{6}
10 км ясно +30.6 +20.1 54 +37 +42 очень
душно
1009.4 1008.0
18 24.06 штиль 0
{4}
10 км ясно +27.8 +18.5 57 +33 +33 очень
душно
1009.4 1008.0 +33.0
03 25.06 штиль 0
{3}
10 км ясно +24.0 +15.8 60 +27 +27 жарко 1009.1 1007.8
06 25.06 штиль 0
{3}
10 км ясно +27.4 +17.7 55 +32 +41 очень
душно
1010.3 1009.0 +24.0 260
09 25.06 С 3
{5}
10 км ясно +31.8 +16.3 39 +35 +52 опасность
солнечного
удара
1010.3 1009.0
12 25.06 ЮВ 3
{5}
10 км ясно +32.2 +22.0 55 +41 +57 опасность
перегрева
1009.3 1007.9

 

Местоположение метеостанции Самос (Греция): широта 37.70 долгота 26.92 высота над уровнем моря 7 м.

В архиве по умолчанию представлена погода на Самосе за последнюю неделю. Архивные данные за месяц целиком и за предыдущие месяцы, начиная с января 2011 года, Вы можете получить, выбрав интересующий диапазон дат из раскрывающегося списка и нажав кнопку "Ввод!".


*Определитесь, кто Вы:
робот инопланетянин человек

Внимание! Время в таблицах - всемирное. Для получения местного времени необходимо прибавить поправку, которая равна 2 ч.

Смотрите также архив погоды в соседних городах и на ближайших метеорологических станциях:

Погода в Кушадасы (Турция) (35 км)
Погода в Икарии (Греция) (51 км)
Погода в Измир аэропорту (Турция) (67 км)
Погода в Леросе (Греция) (77 км)
Погода в Калимносе (Греция) (82 км)
Погода в Айдыне (Турция) (83 км)
Погода в Измире (Турция) (84 км)
Погода в Аэропорту Милас-Бодрум (Турция) (84 км)
Погода в Чешме (Турция) (86 км)
Погода в Бодруме (Турция) (87 км)

Пояснения к столбцам:

Ветер - указаны скорость ветра в м/с - средняя за 10 мин, порывы в срок и между сроками (в фигурных скобках) и направление, откуда дует ветер: С - северный, СВ - северо-восточный, В - восточный, ЮВ - юго-восточный, Ю - южный, ЮЗ - юго-западный, З - западный, СЗ - северо-западный.
Видимость - горизонтальная дальность видимости в метрах или километрах. При видимости от 1 до 10 км при отсутствии осадков обычно наблюдается дымка, при ухудшении видимости до 1 км и менее - туман. В сухую погоду видимость может ухудшаться дымом, пылью или мглою.
Явления - указаны атмосферные явления, наблюдавшиеся в срок или в последний час перед сроком; фигурными скобками обозначены явления, наблюдавшиеся между сроками (за 1-3 часа до срока); квадратными скобками обозначены град или гололедные отложения с указанием их диаметра в мм.
Облачность - указаны через наклонную черту общая и нижняя облачность в баллах и высота нижней границы облаков в метрах; квадратными скобками обозначены формы облаков: Ci - перистые, Cs - перисто-слоистые, Cc - перисто-кучевые, Ac - высококучевые, As - высокослоистые, Sc - слоисто-кучевые, Ns - слоисто-дождевые, Cu - кучевые, Cb - кучево-дождевые. Подробнее классификацию облаков см. в Атласе облаков (PDF).
T - Температура воздуха - температура, измеренная на высоте 2 м над землей.
Td - Температура точки росы - температура, при понижении до которой содержащийся в воздухе водяной пар достигнет насыщения.
f - Относительная влажность воздуха - влажноcть воздуха, измеренная на высоте 2 м над землей.
Te - Эффективная температура - температура, которую ощущает одетый по сезону человек в тени. Характеристика душности погоды. При расчете учитывается влияние влажности воздуха и скорости ветра на теплоощущения человека.
Tes - Эффективная температура на солнце - температура, которую ощущает человек, с поправкой на солнечный нагрев. Характеристика знойности погоды. Зависит от высоты солнца над горизонтом, облачности и скорости ветра. Ночью, в пасмурную погоду, а также при ветре 12 м/с и более поправка равна нулю.
P - Атмосферное давление - приведенное к уровню моря атмосферное давление.
Po - Атмосферное давление - измеренное на уровне метеостанции атмосферное давление.
Tmin - Минимальная температура - минимум температуры воздуха на высоте 2 м над землей.
Tmax - Максимальная температура - максимум температуры воздуха на высоте 2 м над землей.
R - Количество осадков - Количество выпавших осадков за период времени, мм. При наведении курсора мыши на число - период времени, за который выпало указанное количество осадков.
R24 - Количество осадков - Количество выпавших осадков за 24 часа, мм.
S - Снежный покров - Высота снежного покрова, см. При наведении курсора мыши на число - состояние снежного покрова и степень покрытия местности в баллах.